^^
Datos históricos de la estación: Murcia-Puente Tocinos
Diario Informe para Julio 20, 2019 Unidades:  Métrico    Inglés   Ambas
Diario Semanal Mensual Anual Configurable
  Máximo: Mínimo: Media:
Temperatura: 32.0 °C 23.6 °C 27.6 °C
Punto de rocio: 21.8 °C 14.2 °C 18.6 °C
Humedad: 77% 40% 59%
Velocidad viento: 22.5km/h 0.0km/h 10.2km/h
Racha viento: 41.8km/h - -
Viento- - SE
Presión: 1015.3 hPa 1011.5 hPa -
Precipitación: 0.0 mm    
Historical Graphs
 
 
Tabla de datos para Julio 20, 2019
Hora Temperatura Punto de rocio Presión Viento Velocidad viento Racha viento Humedad Intensidad lluvia(por hora) Nubes
00:00 25.6 °C 20.8 °C 1012.7 hPa NNW 3.2 km/h 8.0 km/h 75% 0.0 mm CLR
00:05 25.6 °C 20.8 °C 1012.9 hPa NNW 3.2 km/h 8.0 km/h 75% 0.0 mm CLR
00:10 25.6 °C 21.1 °C 1012.9 hPa NNW 3.2 km/h 8.0 km/h 76% 0.0 mm CLR
00:15 25.6 °C 21.1 °C 1012.9 hPa NW 3.2 km/h 6.4 km/h 76% 0.0 mm CLR
00:20 25.6 °C 21.1 °C 1012.9 hPa NW 2.3 km/h 7.4 km/h 76% 0.0 mm CLR
00:25 25.6 °C 21.1 °C 1012.9 hPa NNW 1.6 km/h 6.4 km/h 76% 0.0 mm CLR
00:30 25.4 °C 20.9 °C 1012.9 hPa North 3.2 km/h 8.0 km/h 76% 0.0 mm CLR
00:35 25.4 °C 20.8 °C 1013.0 hPa NNE 3.2 km/h 8.0 km/h 76% 0.0 mm CLR
00:40 25.3 °C 20.8 °C 1013.0 hPa NNE 4.8 km/h 8.0 km/h 76% 0.0 mm CLR
00:45 25.3 °C 21.0 °C 1013.0 hPa NNE 4.8 km/h 8.0 km/h 77% 0.0 mm CLR
00:50 25.3 °C 21.0 °C 1013.2 hPa North 3.2 km/h 8.0 km/h 77% 0.0 mm CLR
00:55 25.3 °C 21.0 °C 1013.2 hPa NNW 3.2 km/h 8.0 km/h 77% 0.0 mm CLR
01:00 25.3 °C 21.0 °C 1013.2 hPa North 3.2 km/h 8.0 km/h 77% 0.0 mm CLR
01:05 25.3 °C 21.0 °C 1013.1 hPa North 3.2 km/h 8.0 km/h 77% 0.0 mm CLR
01:10 25.3 °C 21.0 °C 1013.1 hPa NNE 3.9 km/h 7.4 km/h 77% 0.0 mm CLR
01:15 25.2 °C 20.9 °C 1013.1 hPa NNE 3.2 km/h 8.0 km/h 77% 0.0 mm CLR
01:20 25.2 °C 20.9 °C 1013.0 hPa NE 3.2 km/h 8.0 km/h 77% 0.0 mm CLR
01:25 25.2 °C 20.9 °C 1013.0 hPa NE 3.2 km/h 8.0 km/h 77% 0.0 mm CLR
01:30 25.2 °C 20.9 °C 1013.0 hPa ENE 3.2 km/h 4.8 km/h 77% 0.0 mm CLR
01:35 25.2 °C 20.9 °C 1013.1 hPa NNE 3.2 km/h 8.0 km/h 77% 0.0 mm CLR
01:40 25.3 °C 21.0 °C 1013.1 hPa NNW 3.2 km/h 5.6 km/h 77% 0.0 mm CLR
01:45 25.3 °C 21.0 °C 1013.1 hPa NNW 3.2 km/h 6.4 km/h 77% 0.0 mm CLR
01:50 25.3 °C 21.0 °C 1012.9 hPa NNW 2.9 km/h 5.6 km/h 77% 0.0 mm CLR
01:55 25.2 °C 20.9 °C 1012.9 hPa NNW 3.2 km/h 8.0 km/h 77% 0.0 mm CLR
02:00 25.2 °C 20.7 °C 1012.9 hPa NW 3.2 km/h 6.4 km/h 76% 0.0 mm CLR
02:05 25.3 °C 20.8 °C 1012.9 hPa NW 3.2 km/h 4.8 km/h 76% 0.0 mm CLR
02:10 25.3 °C 20.8 °C 1012.9 hPa WNW 2.9 km/h 2.9 km/h 76% 0.0 mm CLR
02:15 25.3 °C 20.8 °C 1012.9 hPa WNW 3.2 km/h 3.2 km/h 76% 0.0 mm CLR
02:20 25.3 °C 20.6 °C 1012.7 hPa Calm     75% 0.0 mm CLR
02:25 25.4 °C 20.7 °C 1012.7 hPa Calm     75% 0.0 mm CLR
02:30 25.4 °C 20.7 °C 1012.7 hPa Calm   3.7 km/h 75% 0.0 mm CLR
02:35 25.4 °C 20.4 °C 1012.5 hPa Calm   3.2 km/h 74% 0.0 mm CLR
02:40 25.4 °C 20.4 °C 1012.5 hPa Calm   3.2 km/h 74% 0.0 mm CLR
02:45 25.4 °C 20.4 °C 1012.5 hPa Calm   3.2 km/h 74% 0.0 mm CLR
02:50 25.4 °C 20.4 °C 1012.4 hPa Calm   3.7 km/h 74% 0.0 mm CLR
02:55 25.4 °C 20.4 °C 1012.4 hPa Calm   8.0 km/h 74% 0.0 mm CLR
03:00 25.3 °C 20.3 °C 1012.4 hPa WNW 1.6 km/h 4.8 km/h 74% 0.0 mm CLR
03:05 25.3 °C 20.3 °C 1012.3 hPa WNW 1.6 km/h 8.0 km/h 74% 0.0 mm CLR
03:10 25.2 °C 20.0 °C 1012.3 hPa WNW 3.2 km/h 8.0 km/h 73% 0.0 mm CLR
03:15 25.1 °C 19.9 °C 1012.3 hPa WNW 3.2 km/h 8.0 km/h 73% 0.0 mm CLR
03:20 25.1 °C 19.9 °C 1012.1 hPa WNW 3.2 km/h   73% 0.0 mm CLR
03:25 25.1 °C 19.9 °C 1012.1 hPa WNW 3.2 km/h 8.0 km/h 73% 0.0 mm CLR
03:30 25.1 °C 19.7 °C 1012.1 hPa West 2.3 km/h 1.9 km/h 72% 0.0 mm CLR
03:35 25.1 °C 19.4 °C 1012.0 hPa West 1.6 km/h 4.8 km/h 71% 0.0 mm CLR
03:40 25.1 °C 19.4 °C 1012.0 hPa West 1.6 km/h 4.8 km/h 71% 0.0 mm CLR
03:45 25.1 °C 19.4 °C 1012.0 hPa West 1.6 km/h 8.0 km/h 71% 0.0 mm CLR
03:50 25.1 °C 19.2 °C 1011.9 hPa West 2.3 km/h   70% 0.0 mm CLR
03:55 25.2 °C 19.3 °C 1011.9 hPa West 1.6 km/h   70% 0.0 mm CLR
04:00 25.2 °C 19.3 °C 1011.9 hPa Calm     70% 0.0 mm CLR
04:05 25.2 °C 19.3 °C 1011.9 hPa Calm     70% 0.0 mm CLR
04:10 25.2 °C 19.6 °C 1011.9 hPa Calm     71% 0.0 mm CLR
04:15 25.1 °C 19.5 °C 1011.9 hPa Calm     71% 0.0 mm CLR
04:20 25.1 °C 19.7 °C 1011.7 hPa Calm     72% 0.0 mm CLR
04:25 25.1 °C 19.9 °C 1011.7 hPa Calm     73% 0.0 mm CLR
04:30 25.0 °C 19.8 °C 1011.7 hPa Calm   8.0 km/h 73% 0.0 mm CLR
04:35 24.9 °C 19.9 °C 1011.8 hPa Calm   9.7 km/h 74% 0.0 mm CLR
04:40 24.9 °C 19.9 °C 1011.8 hPa SW 3.2 km/h 8.0 km/h 74% 0.0 mm CLR
04:45 24.9 °C 19.9 °C 1011.8 hPa SW 3.2 km/h 8.0 km/h 74% 0.0 mm CLR
04:50 24.8 °C 19.8 °C 1011.5 hPa WSW 3.2 km/h 8.0 km/h 74% 0.0 mm CLR
04:55 24.8 °C 19.8 °C 1011.5 hPa WSW 3.2 km/h 8.0 km/h 74% 0.0 mm CLR
05:00 24.7 °C 19.8 °C 1011.5 hPa WSW 3.2 km/h 11.3 km/h 74% 0.0 mm CLR
05:05 24.6 °C 19.4 °C 1011.6 hPa WSW 3.2 km/h 12.9 km/h 73% 0.0 mm CLR
05:10 24.6 °C 19.4 °C 1011.6 hPa WSW 8.0 km/h 12.9 km/h 73% 0.0 mm CLR
05:15 24.4 °C 19.2 °C 1011.6 hPa WSW 8.0 km/h 11.3 km/h 73% 0.0 mm CLR
05:20 24.4 °C 19.0 °C 1011.5 hPa SW 6.4 km/h 9.3 km/h 72% 0.0 mm CLR
05:25 24.4 °C 19.0 °C 1011.5 hPa SW 8.0 km/h 9.7 km/h 72% 0.0 mm CLR
05:30 24.3 °C 18.9 °C 1011.5 hPa SW 8.0 km/h 9.7 km/h 72% 0.0 mm CLR
05:35 24.3 °C 18.9 °C 1011.6 hPa SW 8.0 km/h 12.9 km/h 72% 0.0 mm CLR
05:40 24.3 °C 18.9 °C 1011.6 hPa SW 8.0 km/h 11.3 km/h 72% 0.0 mm CLR
05:45 24.3 °C 18.9 °C 1011.6 hPa SW 8.0 km/h 9.7 km/h 72% 0.0 mm CLR
05:50 24.3 °C 18.7 °C 1011.7 hPa SW 8.0 km/h 9.7 km/h 71% 0.0 mm CLR
05:55 24.3 °C 18.5 °C 1011.7 hPa SW 8.0 km/h 9.7 km/h 70% 0.0 mm CLR
06:00 24.2 °C 18.4 °C 1011.7 hPa SW 4.8 km/h 11.3 km/h 70% 0.0 mm CLR
06:05 24.2 °C 18.2 °C 1011.6 hPa WSW 4.8 km/h 11.3 km/h 69% 0.0 mm CLR
06:10 24.2 °C 18.4 °C 1011.6 hPa WSW 6.4 km/h 9.3 km/h 70% 0.0 mm CLR
06:15 24.1 °C 18.3 °C 1011.6 hPa SSW 8.0 km/h 12.9 km/h 70% 0.0 mm CLR
06:20 23.9 °C 18.1 °C 1011.7 hPa SSW 8.0 km/h 12.9 km/h 70% 0.0 mm CLR
06:25 23.8 °C 18.2 °C 1011.7 hPa SSW 8.0 km/h 12.9 km/h 71% 0.0 mm CLR
06:30 23.8 °C 18.0 °C 1011.7 hPa SSW 8.0 km/h 12.9 km/h 70% 0.0 mm CLR
06:35 23.8 °C 18.0 °C 1011.6 hPa SW 8.0 km/h 9.7 km/h 70% 0.0 mm CLR
06:40 23.7 °C 17.9 °C 1011.6 hPa SSW 6.9 km/h 13.0 km/h 70% 0.0 mm CLR
06:45 23.7 °C 17.7 °C 1011.6 hPa SSW 8.0 km/h 16.1 km/h 69% 0.0 mm CLR
06:50 23.7 °C 17.7 °C 1011.7 hPa SW 8.4 km/h 9.3 km/h 69% 0.0 mm CLR
06:55 23.7 °C 17.7 °C 1011.7 hPa SW 8.0 km/h 12.9 km/h 69% 0.0 mm CLR
07:00 23.7 °C 17.4 °C 1011.7 hPa SW 8.0 km/h 14.5 km/h 68% 0.0 mm CLR
07:05 23.7 °C 17.4 °C 1011.7 hPa SW 8.0 km/h 12.9 km/h 68% 0.0 mm CLR
07:10 23.6 °C 16.9 °C 1011.7 hPa WSW 8.4 km/h 13.0 km/h 66% 0.0 mm CLR
07:15 23.6 °C 16.9 °C 1011.7 hPa WSW 8.0 km/h 12.9 km/h 66% 0.0 mm CLR
07:20 23.6 °C 16.9 °C 1011.8 hPa WSW 7.6 km/h 9.3 km/h 66% 0.0 mm CLR
07:25 23.6 °C 16.9 °C 1011.8 hPa WSW 8.0 km/h 9.7 km/h 66% 0.0 mm CLR
07:30 23.6 °C 16.9 °C 1011.8 hPa WSW 4.8 km/h 8.0 km/h 66% 0.0 mm CLR
07:35 23.6 °C 16.9 °C 1011.8 hPa West 4.8 km/h 8.0 km/h 66% 0.0 mm CLR
07:40 23.6 °C 16.9 °C 1011.8 hPa West 4.7 km/h 7.4 km/h 66% 0.0 mm CLR
07:45 23.6 °C 16.6 °C 1011.8 hPa West 3.2 km/h 8.0 km/h 65% 0.0 mm CLR
07:50 23.6 °C 16.6 °C 1011.8 hPa West 3.2 km/h 6.4 km/h 65% 0.0 mm CLR
07:55 23.7 °C 16.7 °C 1011.8 hPa West 3.2 km/h 8.0 km/h 65% 0.0 mm CLR
08:00 23.7 °C 16.7 °C 1011.8 hPa West 3.2 km/h 9.7 km/h 65% 0.0 mm CLR
08:05 23.8 °C 16.6 °C 1012.0 hPa West 3.2 km/h 11.3 km/h 64% 0.0 mm CLR
08:10 23.9 °C 16.7 °C 1012.0 hPa WSW 4.8 km/h 9.7 km/h 64% 0.0 mm CLR
08:15 24.0 °C 16.6 °C 1012.0 hPa WSW 4.8 km/h 9.7 km/h 63% 0.0 mm CLR
08:20 24.2 °C 16.2 °C 1012.1 hPa WSW 4.8 km/h 11.3 km/h 61% 0.0 mm CLR
08:25 24.3 °C 16.3 °C 1012.1 hPa WSW 4.8 km/h 12.9 km/h 61% 0.0 mm CLR
08:30 24.4 °C 15.9 °C 1012.1 hPa SW 8.0 km/h 9.7 km/h 59% 0.0 mm CLR
08:35 24.5 °C 15.7 °C 1012.1 hPa WSW 8.0 km/h 9.7 km/h 58% 0.0 mm CLR
08:40 24.6 °C 16.1 °C 1012.1 hPa West 4.8 km/h 8.0 km/h 59% 0.0 mm CLR
08:45 24.7 °C 15.9 °C 1012.1 hPa West 4.8 km/h 8.0 km/h 58% 0.0 mm CLR
08:50 24.8 °C 15.9 °C 1012.1 hPa WSW 4.8 km/h 9.7 km/h 58% 0.0 mm CLR
08:55 24.9 °C 15.8 °C 1012.1 hPa SW 4.8 km/h 9.7 km/h 57% 0.0 mm CLR
09:00 25.1 °C 15.7 °C 1012.1 hPa SSW 4.8 km/h 11.3 km/h 56% 0.0 mm CLR
09:05 25.1 °C 15.4 °C 1012.3 hPa SSW 4.8 km/h 11.3 km/h 55% 0.0 mm CLR
09:10 25.2 °C 15.2 °C 1012.3 hPa West 6.9 km/h 11.1 km/h 54% 0.0 mm CLR
09:15 25.4 °C 15.4 °C 1012.3 hPa WSW 8.0 km/h 11.3 km/h 54% 0.0 mm CLR
09:20 25.6 °C 15.6 °C 1012.2 hPa West 4.8 km/h 8.0 km/h 54% 0.0 mm CLR
09:25 25.7 °C 15.7 °C 1012.2 hPa West 4.8 km/h 11.3 km/h 54% 0.0 mm CLR
09:30 25.8 °C 15.8 °C 1012.2 hPa WSW 4.8 km/h 9.7 km/h 54% 0.0 mm CLR
09:35 25.8 °C 15.8 °C 1012.2 hPa SW 4.8 km/h 8.0 km/h 54% 0.0 mm CLR
09:40 26.1 °C 15.7 °C 1012.2 hPa SW 3.2 km/h 8.0 km/h 53% 0.0 mm CLR
09:45 26.2 °C 15.6 °C 1012.2 hPa SW 3.2 km/h 9.7 km/h 52% 0.0 mm CLR
09:50 26.4 °C 15.7 °C 1012.2 hPa SW 4.8 km/h 9.7 km/h 52% 0.0 mm CLR
09:55 26.5 °C 15.6 °C 1012.2 hPa SW 4.8 km/h 12.9 km/h 51% 0.0 mm CLR
10:00 26.6 °C 15.7 °C 1012.2 hPa SSW 8.0 km/h 12.9 km/h 51% 0.0 mm CLR
10:05 26.8 °C 15.5 °C 1012.4 hPa South 8.0 km/h 14.5 km/h 50% 0.0 mm CLR
10:10 26.9 °C 15.3 °C 1012.4 hPa South 8.0 km/h 14.5 km/h 49% 0.0 mm CLR
10:15 27.1 °C 15.5 °C 1012.4 hPa SSW 8.0 km/h 11.3 km/h 49% 0.0 mm CLR
10:20 27.3 °C 15.7 °C 1012.5 hPa SSW 8.0 km/h 14.5 km/h 49% 0.0 mm CLR
10:25 27.3 °C 15.7 °C 1012.5 hPa South 8.0 km/h 14.5 km/h 49% 0.0 mm CLR
10:30 27.3 °C 15.7 °C 1012.5 hPa SSW 8.0 km/h 11.3 km/h 49% 0.0 mm CLR
10:35 27.6 °C 15.6 °C 1012.4 hPa SW 8.0 km/h 8.0 km/h 48% 0.0 mm CLR
10:40 27.9 °C 15.6 °C 1012.4 hPa WSW 3.2 km/h 8.0 km/h 47% 0.0 mm CLR
10:45 28.2 °C 15.2 °C 1012.4 hPa West 3.2 km/h 9.7 km/h 45% 0.0 mm CLR
10:50 28.4 °C 14.6 °C 1012.4 hPa West 3.2 km/h 8.0 km/h 43% 0.0 mm CLR
10:55 28.8 °C 14.3 °C 1012.4 hPa South 3.2 km/h 8.0 km/h 41% 0.0 mm CLR
11:00 29.2 °C 14.2 °C 1012.4 hPa South 3.2 km/h 9.7 km/h 40% 0.0 mm CLR
11:05 29.4 °C 14.8 °C 1012.4 hPa South 3.2 km/h 8.0 km/h 41% 0.0 mm CLR
11:10 29.8 °C 14.7 °C 1012.4 hPa West 3.2 km/h 3.9 km/h 40% 0.0 mm CLR
11:15 30.1 °C 15.0 °C 1012.4 hPa South 3.2 km/h 11.3 km/h 40% 0.0 mm CLR
11:20 30.1 °C 15.4 °C 1012.4 hPa East 4.8 km/h 11.3 km/h 41% 0.0 mm CLR
11:25 30.1 °C 15.4 °C 1012.4 hPa NE 4.8 km/h 12.9 km/h 41% 0.0 mm CLR
11:30 29.9 °C 15.6 °C 1012.4 hPa NE 8.0 km/h 16.1 km/h 42% 0.0 mm CLR
11:35 29.7 °C 15.4 °C 1012.4 hPa NE 8.0 km/h 12.9 km/h 42% 0.0 mm CLR
11:40 29.7 °C 15.8 °C 1012.4 hPa ENE 8.0 km/h 11.3 km/h 43% 0.0 mm CLR
11:45 29.9 °C 15.6 °C 1012.4 hPa ENE 8.0 km/h 14.5 km/h 42% 0.0 mm CLR
11:50 29.9 °C 15.6 °C 1012.4 hPa ENE 8.0 km/h 11.3 km/h 42% 0.0 mm CLR
11:55 30.1 °C 15.8 °C 1012.4 hPa ENE 8.0 km/h 14.5 km/h 42% 0.0 mm CLR
12:00 30.3 °C 16.0 °C 1012.4 hPa NE 4.8 km/h 11.3 km/h 42% 0.0 mm CLR
12:05 30.7 °C 16.3 °C 1012.4 hPa NE 5.8 km/h 7.4 km/h 42% 0.0 mm CLR
12:10 31.0 °C 16.2 °C 1012.4 hPa NE 6.4 km/h 16.7 km/h 41% 0.0 mm CLR
12:15 30.9 °C 16.1 °C 1012.4 hPa NE 8.0 km/h 19.3 km/h 41% 0.0 mm CLR
12:20 30.9 °C 16.1 °C 1012.2 hPa NE 11.3 km/h 22.5 km/h 41% 0.0 mm CLR
12:25 31.0 °C 16.6 °C 1012.2 hPa NE 11.3 km/h 22.5 km/h 42% 0.0 mm CLR
12:30 31.0 °C 16.6 °C 1012.2 hPa NNE 11.3 km/h 20.9 km/h 42% 0.0 mm CLR
12:35 31.2 °C 16.8 °C 1012.2 hPa NE 11.3 km/h 19.3 km/h 42% 0.0 mm CLR
12:40 31.2 °C 17.1 °C 1012.2 hPa NE 9.7 km/h 22.5 km/h 43% 0.0 mm CLR
12:45 31.4 °C 16.9 °C 1012.2 hPa NE 9.7 km/h 19.3 km/h 42% 0.0 mm CLR
12:50 31.6 °C 17.1 °C 1012.1 hPa NE 10.0 km/h 11.1 km/h 42% 0.0 mm CLR
12:55 31.7 °C 16.8 °C 1012.1 hPa NE 9.7 km/h 27.4 km/h 41% 0.0 mm CLR
13:00 31.7 °C 16.8 °C 1012.1 hPa NE 14.5 km/h 33.8 km/h 41% 0.0 mm CLR
13:05 31.8 °C 16.6 °C 1012.2 hPa NE 14.5 km/h 27.4 km/h 40% 0.0 mm CLR
13:10 31.8 °C 16.9 °C 1012.2 hPa NE 19.3 km/h 32.2 km/h 41% 0.0 mm CLR
13:15 31.9 °C 17.0 °C 1012.2 hPa NE 19.3 km/h 33.8 km/h 41% 0.0 mm CLR
13:20 31.9 °C 16.6 °C 1012.2 hPa NE 16.1 km/h 27.4 km/h 40% 0.0 mm CLR
13:25 32.0 °C 17.1 °C 1012.2 hPa NE 16.1 km/h 32.2 km/h 41% 0.0 mm CLR
13:30 31.9 °C 17.1 °C 1012.2 hPa NE 14.5 km/h 32.2 km/h 41% 0.0 mm CLR
13:35 31.9 °C 18.5 °C 1012.4 hPa NE 14.5 km/h 29.0 km/h 45% 0.0 mm CLR
13:40 31.8 °C 18.4 °C 1012.4 hPa ENE 16.1 km/h 33.8 km/h 45% 0.0 mm CLR
13:45 31.7 °C 18.6 °C 1012.4 hPa East 16.1 km/h 33.8 km/h 46% 0.0 mm CLR
13:50 31.4 °C 18.7 °C 1012.4 hPa ENE 14.5 km/h 33.8 km/h 47% 0.0 mm CLR
13:55 31.4 °C 18.7 °C 1012.4 hPa ENE 14.5 km/h 33.8 km/h 47% 0.0 mm CLR
14:00 31.3 °C 18.7 °C 1012.4 hPa ENE 16.1 km/h 35.4 km/h 47% 0.0 mm CLR
14:05 31.2 °C 18.9 °C 1012.2 hPa ENE 16.1 km/h 41.8 km/h 48% 0.0 mm CLR
14:10 31.1 °C 19.1 °C 1012.2 hPa ENE 16.1 km/h 38.6 km/h 49% 0.0 mm CLR
14:15 30.9 °C 19.3 °C 1012.2 hPa ENE 16.1 km/h 38.6 km/h 50% 0.0 mm CLR
14:20 30.9 °C 19.6 °C 1012.3 hPa ENE 19.3 km/h 38.6 km/h 51% 0.0 mm CLR
14:25 30.9 °C 19.6 °C 1012.3 hPa ENE 19.3 km/h 32.2 km/h 51% 0.0 mm CLR
14:30 30.4 °C 19.4 °C 1012.3 hPa NE 20.1 km/h 35.2 km/h 52% 0.0 mm CLR
14:35 30.4 °C 19.7 °C 1012.4 hPa NE 20.9 km/h 35.4 km/h 53% 0.0 mm CLR
14:40 30.6 °C 20.2 °C 1012.4 hPa ENE 22.5 km/h 41.8 km/h 54% 0.0 mm CLR
14:45 30.6 °C 20.5 °C 1012.4 hPa ENE 22.5 km/h 32.2 km/h 55% 0.0 mm CLR
14:50 30.7 °C 20.3 °C 1012.6 hPa NE 19.3 km/h 35.4 km/h 54% 0.0 mm CLR
14:55 30.6 °C 20.4 °C 1012.6 hPa NE 19.3 km/h 32.2 km/h 55% 0.0 mm CLR
15:00 30.6 °C 20.6 °C 1012.6 hPa ENE 19.3 km/h 40.2 km/h 55% 0.0 mm CLR
15:05 30.7 °C 20.3 °C 1012.7 hPa ENE 19.3 km/h 37.0 km/h 54% 0.0 mm CLR
15:10 30.3 °C 20.6 °C 1012.7 hPa NE 20.9 km/h 35.4 km/h 56% 0.0 mm CLR
15:15 30.4 °C 20.6 °C 1012.7 hPa NE 20.9 km/h 35.4 km/h 56% 0.0 mm CLR
15:20 30.6 °C 20.8 °C 1012.8 hPa North 19.0 km/h 29.6 km/h 56% 0.0 mm CLR
15:25 30.4 °C 21.2 °C 1012.8 hPa NE 19.3 km/h 33.8 km/h 58% 0.0 mm CLR
15:30 30.4 °C 21.2 °C 1012.8 hPa ENE 19.3 km/h 35.4 km/h 58% 0.0 mm CLR
15:35 30.0 °C 21.1 °C 1012.6 hPa NE 19.3 km/h 41.8 km/h 59% 0.0 mm CLR
15:40 29.9 °C 21.6 °C 1012.6 hPa NE 22.5 km/h 40.2 km/h 61% 0.0 mm CLR
15:45 30.2 °C 21.6 °C 1012.6 hPa NE 22.5 km/h 32.2 km/h 60% 0.0 mm CLR
15:50 29.9 °C 21.6 °C 1012.5 hPa NNE 19.0 km/h 35.2 km/h 61% 0.0 mm CLR
15:55 29.8 °C 21.4 °C 1012.5 hPa NE 19.3 km/h 29.0 km/h 61% 0.0 mm CLR
16:00 30.1 °C 21.8 °C 1012.5 hPa NE 16.1 km/h 30.6 km/h 61% 0.0 mm CLR
16:05 29.8 °C 21.8 °C 1012.4 hPa NE 16.1 km/h 35.4 km/h 62% 0.0 mm CLR
16:10 29.9 °C 21.8 °C 1012.4 hPa NE 20.9 km/h 35.4 km/h 62% 0.0 mm CLR
16:15 29.8 °C 21.7 °C 1012.4 hPa NE 20.9 km/h 33.8 km/h 62% 0.0 mm CLR
16:20 29.9 °C 21.8 °C 1012.4 hPa NE 19.3 km/h 32.2 km/h 62% 0.0 mm CLR
16:25 29.8 °C 21.7 °C 1012.4 hPa NE 19.3 km/h 33.8 km/h 62% 0.0 mm CLR
16:30 29.8 °C 21.7 °C 1012.4 hPa NE 20.9 km/h 35.4 km/h 62% 0.0 mm CLR
16:35 29.6 °C 21.6 °C 1012.3 hPa NE 20.9 km/h 33.8 km/h 62% 0.0 mm CLR
16:40 29.7 °C 21.7 °C 1012.3 hPa NE 20.9 km/h 32.2 km/h 62% 0.0 mm CLR
16:45 29.8 °C 21.7 °C 1012.3 hPa NE 20.9 km/h 35.4 km/h 62% 0.0 mm CLR
16:50 29.7 °C 21.4 °C 1012.2 hPa East 19.0 km/h 24.1 km/h 61% 0.0 mm CLR
16:55 29.8 °C 21.4 °C 1012.2 hPa NE 19.3 km/h 33.8 km/h 61% 0.0 mm CLR
17:00 30.1 °C 21.2 °C 1012.2 hPa NE 16.1 km/h 27.4 km/h 59% 0.0 mm CLR
17:05 30.1 °C 20.9 °C 1012.2 hPa ENE 16.4 km/h 31.5 km/h 58% 0.0 mm CLR
17:10 29.9 °C 21.0 °C 1012.2 hPa NE 20.9 km/h 33.8 km/h 59% 0.0 mm CLR
17:15 29.9 °C 20.8 °C 1012.2 hPa NE 20.9 km/h 32.2 km/h 58% 0.0 mm CLR
17:20 30.2 °C 21.0 °C 1012.2 hPa NE 18.0 km/h 22.2 km/h 58% 0.0 mm CLR
17:25 30.2 °C 20.2 °C 1012.2 hPa NE 19.3 km/h 33.8 km/h 55% 0.0 mm CLR
17:30 30.2 °C 20.2 °C 1012.2 hPa NE 19.3 km/h 35.4 km/h 55% 0.0 mm CLR
17:35 30.1 °C 20.1 °C 1012.1 hPa NE 19.3 km/h 33.8 km/h 55% 0.0 mm CLR
17:40 30.1 °C 20.1 °C 1012.1 hPa NE 22.5 km/h 37.0 km/h 55% 0.0 mm CLR
17:45 30.2 °C 19.6 °C 1012.1 hPa NE 22.5 km/h 33.8 km/h 53% 0.0 mm CLR
17:50 30.3 °C 19.7 °C 1012.1 hPa NE 20.9 km/h 37.0 km/h 53% 0.0 mm CLR
17:55 30.6 °C 19.9 °C 1012.1 hPa NE 20.9 km/h 37.0 km/h 53% 0.0 mm CLR
18:00 30.4 °C 19.8 °C 1012.1 hPa NE 19.3 km/h 33.8 km/h 53% 0.0 mm CLR
18:05 30.6 °C 19.6 °C 1012.0 hPa NE 19.3 km/h 32.2 km/h 52% 0.0 mm CLR
18:10 30.6 °C 19.9 °C 1012.0 hPa NE 16.1 km/h 30.6 km/h 53% 0.0 mm CLR
18:15 30.6 °C 19.3 °C 1012.0 hPa NE 16.1 km/h 32.2 km/h 51% 0.0 mm CLR
18:20 30.3 °C 19.1 °C 1012.0 hPa NE 19.8 km/h 27.0 km/h 51% 0.0 mm CLR
18:25 30.3 °C 19.1 °C 1012.0 hPa NE 20.9 km/h 35.4 km/h 51% 0.0 mm CLR
18:30 30.4 °C 18.8 °C 1012.0 hPa NE 20.9 km/h 37.0 km/h 50% 0.0 mm CLR
18:35 30.4 °C 18.5 °C 1012.0 hPa NE 20.9 km/h 30.6 km/h 49% 0.0 mm CLR
18:40 30.4 °C 18.8 °C 1012.0 hPa NE 20.9 km/h 33.8 km/h 50% 0.0 mm CLR
18:45 30.3 °C 18.4 °C 1012.0 hPa NE 20.9 km/h 33.8 km/h 49% 0.0 mm CLR
18:50 30.4 °C 18.2 °C 1012.2 hPa NE 20.9 km/h 38.6 km/h 48% 0.0 mm CLR
18:55 30.4 °C 17.5 °C 1012.2 hPa NE 20.9 km/h 32.2 km/h 46% 0.0 mm CLR
19:00 30.7 °C 17.3 °C 1012.2 hPa NE 19.3 km/h 33.8 km/h 45% 0.0 mm CLR
19:05 30.7 °C 17.1 °C 1012.1 hPa NE 19.3 km/h 33.8 km/h 44% 0.0 mm CLR
19:10 30.9 °C 17.2 °C 1012.1 hPa NE 19.3 km/h 30.6 km/h 44% 0.0 mm CLR
19:15 30.9 °C 17.6 °C 1012.1 hPa ENE 19.3 km/h 29.0 km/h 45% 0.0 mm CLR
19:20 31.0 °C 17.3 °C 1012.2 hPa ENE 13.7 km/h 24.1 km/h 44% 0.0 mm CLR
19:25 31.0 °C 17.3 °C 1012.2 hPa ENE 12.9 km/h 24.1 km/h 44% 0.0 mm CLR
19:30 30.9 °C 17.2 °C 1012.2 hPa NE 14.5 km/h 24.1 km/h 44% 0.0 mm CLR
19:35 30.9 °C 17.3 °C 1012.4 hPa NE 14.5 km/h 25.7 km/h 44% 0.0 mm CLR
19:40 30.8 °C 17.8 °C 1012.4 hPa East 13.7 km/h 24.1 km/h 46% 0.0 mm CLR
19:45 30.6 °C 17.0 °C 1012.4 hPa ENE 12.9 km/h 30.6 km/h 44% 0.0 mm CLR
19:50 30.6 °C 17.7 °C 1012.6 hPa NE 16.1 km/h 30.6 km/h 46% 0.0 mm CLR
19:55 30.3 °C 17.1 °C 1012.6 hPa NE 16.1 km/h 35.4 km/h 45% 0.0 mm CLR
20:00 30.3 °C 17.4 °C 1012.6 hPa NE 14.5 km/h 22.5 km/h 46% 0.0 mm CLR
20:05 30.2 °C 17.3 °C 1012.9 hPa NE 14.5 km/h 32.2 km/h 46% 0.0 mm CLR
20:10 30.1 °C 17.8 °C 1012.9 hPa NE 14.5 km/h 33.8 km/h 48% 0.0 mm CLR
20:15 29.7 °C 17.8 °C 1012.9 hPa ENE 14.5 km/h 25.7 km/h 49% 0.0 mm CLR
20:20 29.6 °C 17.8 °C 1013.1 hPa East 14.8 km/h 20.4 km/h 49% 0.0 mm CLR
20:25 29.4 °C 17.9 °C 1013.1 hPa NE 14.5 km/h 27.4 km/h 50% 0.0 mm CLR
20:30 29.3 °C 18.1 °C 1013.1 hPa NE 14.5 km/h 29.0 km/h 51% 0.0 mm CLR
20:35 29.2 °C 18.3 °C 1013.1 hPa NE 14.5 km/h 27.4 km/h 52% 0.0 mm CLR
20:40 29.1 °C 18.2 °C 1013.1 hPa NE 14.5 km/h 27.4 km/h 52% 0.0 mm CLR
20:45 29.1 °C 18.2 °C 1013.1 hPa NE 14.5 km/h 25.7 km/h 52% 0.0 mm CLR
20:50 28.9 °C 18.1 °C 1013.3 hPa NE 14.5 km/h 29.0 km/h 52% 0.0 mm CLR
20:55 28.9 °C 18.1 °C 1013.3 hPa NE 14.5 km/h 29.0 km/h 52% 0.0 mm CLR
21:00 28.8 °C 18.3 °C 1013.3 hPa NE 16.1 km/h 25.7 km/h 53% 0.0 mm CLR
21:05 28.7 °C 18.2 °C 1013.6 hPa NE 16.1 km/h 25.7 km/h 53% 0.0 mm CLR
21:10 28.6 °C 18.4 °C 1013.6 hPa NE 15.6 km/h 18.5 km/h 54% 0.0 mm CLR
21:15 28.5 °C 18.6 °C 1013.6 hPa NE 14.5 km/h 24.1 km/h 55% 0.0 mm CLR
21:20 28.4 °C 18.5 °C 1013.8 hPa NE 12.9 km/h 19.3 km/h 55% 0.0 mm CLR
21:25 28.3 °C 18.7 °C 1013.8 hPa NE 12.9 km/h 20.9 km/h 56% 0.0 mm CLR
21:30 28.2 °C 18.9 °C 1013.8 hPa ENE 11.9 km/h 22.2 km/h 57% 0.0 mm CLR
21:35 28.1 °C 18.8 °C 1014.0 hPa NE 11.3 km/h 22.5 km/h 57% 0.0 mm CLR
21:40 27.9 °C 18.9 °C 1014.0 hPa NE 14.5 km/h 25.7 km/h 58% 0.0 mm CLR
21:45 27.8 °C 19.1 °C 1014.0 hPa NE 14.5 km/h 25.7 km/h 59% 0.0 mm CLR
21:50 27.7 °C 18.9 °C 1014.3 hPa NE 16.1 km/h 27.8 km/h 59% 0.0 mm CLR
21:55 27.7 °C 19.2 °C 1014.3 hPa NE 16.1 km/h 27.4 km/h 60% 0.0 mm CLR
22:00 27.6 °C 19.1 °C 1014.3 hPa NE 16.1 km/h 27.4 km/h 60% 0.0 mm CLR
22:05 27.5 °C 19.1 °C 1014.5 hPa NE 16.1 km/h 24.1 km/h 60% 0.0 mm CLR
22:10 27.4 °C 19.2 °C 1014.5 hPa NNE 14.8 km/h 22.2 km/h 61% 0.0 mm CLR
22:15 27.4 °C 19.2 °C 1014.5 hPa NE 14.5 km/h 22.5 km/h 61% 0.0 mm CLR
22:20 27.3 °C 19.1 °C 1014.7 hPa NE 12.9 km/h 20.9 km/h 61% 0.0 mm CLR
22:25 27.3 °C 19.1 °C 1014.7 hPa NE 12.9 km/h 22.5 km/h 61% 0.0 mm CLR
22:30 27.2 °C 19.0 °C 1014.7 hPa NE 12.9 km/h 20.9 km/h 61% 0.0 mm CLR
22:35 27.2 °C 19.0 °C 1014.9 hPa NE 12.9 km/h 17.7 km/h 61% 0.0 mm CLR
22:40 27.2 °C 19.0 °C 1014.9 hPa NE 11.3 km/h 19.3 km/h 61% 0.0 mm CLR
22:45 27.1 °C 18.9 °C 1014.9 hPa NE 11.3 km/h 19.3 km/h 61% 0.0 mm CLR
22:50 27.1 °C 18.9 °C 1015.0 hPa NE 11.1 km/h 18.5 km/h 61% 0.0 mm CLR
22:55 27.0 °C 18.8 °C 1015.0 hPa NE 11.3 km/h 19.3 km/h 61% 0.0 mm CLR
23:00 27.0 °C 19.1 °C 1015.0 hPa NE 11.3 km/h 16.1 km/h 62% 0.0 mm CLR
23:05 26.9 °C 19.0 °C 1015.1 hPa NE 11.3 km/h 16.1 km/h 62% 0.0 mm CLR
23:10 26.9 °C 19.0 °C 1015.1 hPa NE 9.5 km/h 16.7 km/h 62% 0.0 mm CLR
23:15 26.8 °C 18.9 °C 1015.1 hPa NE 9.7 km/h 16.1 km/h 62% 0.0 mm CLR
23:20 26.7 °C 18.8 °C 1015.2 hPa NE 9.7 km/h 14.5 km/h 62% 0.0 mm CLR
23:25 26.7 °C 18.8 °C 1015.2 hPa NE 9.7 km/h 14.5 km/h 62% 0.0 mm CLR
23:30 26.7 °C 18.8 °C 1015.2 hPa NE 9.7 km/h 16.1 km/h 62% 0.0 mm CLR
23:35 26.7 °C 18.8 °C 1015.2 hPa NE 9.7 km/h 16.1 km/h 62% 0.0 mm CLR
23:40 26.7 °C 18.6 °C 1015.2 hPa NE 9.7 km/h 16.1 km/h 61% 0.0 mm CLR
23:45 26.7 °C 18.6 °C 1015.2 hPa NE 9.7 km/h 16.1 km/h 61% 0.0 mm CLR
23:50 26.7 °C 18.6 °C 1015.3 hPa NE 8.0 km/h 22.5 km/h 61% 0.0 mm CLR
23:55 26.7 °C 18.6 °C 1015.3 hPa NE 8.0 km/h 14.5 km/h 61% 0.0 mm CLR
Murcia-Puente Tocinos, España
Compliments of Weather Underground - 3.25 mb

La estación de MeteoMurcia.com, publica sus datos en los siguientes proyectos:

Weather Underground PWS IMURCIAP2 Meteoclimatic www.awekas.at

W3Counter
Web Analytics